Location: Risskov
(56.1972°N, 10.2480°E)
Time: 22:38:41
(UTC+00:00)

ATLAS 2AS CENTAUR R/B - Pass Details

Date: 05 July 2020
Orbit: 930 x 1282 km, 63.7° (Epoch: 19 July)

Event Time Altitude Azimuth Distance (km) Brightness Sun altitude
Rises 22:30:20 0° 311° (NW) 4,201 6.8 -10.3°
Reaches altitude 10° 22:33:20 10° 306° (NW) 3,195 5.9 -10.4°
Maximum altitude 22:40:28 44° 238° (WSW) 1,571 3.4 -10.6°
Enters shadow 22:46:18 13° 172° (S) 2,708 4.1 -10.7°
